Regional Weather Roundup
Issued by NWS

Home | Current Version | Previous Version | Text Only | Print | Product List | Glossary On
Versions: 1 2 3 4 5 6 7 8 9 10 11 12 13 14 15 16 17 18 19 20 21 22 23 24 25 26 27 28 29 30 31 32 33 34 35 36 37 38 39 40 41 42 43 44 45 46 47 48 49 50
000
ASUS46 KSEW 231810
RWRWA

WASHINGTON REGIONAL WEATHER ROUNDUP
NATIONAL WEATHER SERVICE SEATTLE WA
1100 AM PDT WED AUG 23 2017

NOTE:"FAIR" INDICATES FEW OR NO CLOUDS BELOW 12,000 FEET WITH NO
SIGNIFICANT WEATHER AND/OR OBSTRUCTIONS TO VISIBILITY.

WAZ507-509-555>559-231900-
SEATTLE, TACOMA, EVERETT, AND VICINITY

CITY           SKY/WX    TMP DP  RH WIND       PRES   REMARKS
EVERETT        MOSUNNY   66  56  70 SW8       30.05S
6HR MIN TEMP:  58; 6HR MAX TEMP:  66;

BOEING FIELD   CLOUDY    67  59  75 VRB3      30.04S
6HR MIN TEMP:  60; 6HR MAX TEMP:  67;

RENTON         CLOUDY    68  58  70 S6        30.04S
6HR MIN TEMP:  62; 6HR MAX TEMP:  68;

SEATAC AIRPORT CLOUDY    64  56  75 S7        30.05S
6HR MIN TEMP:  60; 6HR MAX TEMP:  65;

JBLM-MCCHORD   CLOUDY    64  60  88 NW6       30.05F
6HR MIN TEMP:  59; 6HR MAX TEMP:  64;

PUYALLUP       FAIR      70  57  64 VRB3      30.05F
BREMERTON      CLOUDY    62  57  83 SW3       30.05F
6HR MIN TEMP:  58; 6HR MAX TEMP:  62;

JBLM-FT LEWIS  PTSUNNY   64  59  86 W7        30.04F
6HR MIN TEMP:  59; 6HR MAX TEMP:  64;

TACOMA NARROWS CLOUDY    59  56  89 S6        30.05F
6HR MIN TEMP:  57; 6HR MAX TEMP:  59;

$$

WAZ001-503-506-510-514-515-231900-
NORTH INTERIOR

CITY           SKY/WX    TMP DP  RH WIND       PRES   REMARKS
BELLINGHAM     MOSUNNY   67  56  67 S10       30.02S
6HR MIN TEMP:  60; 6HR MAX TEMP:  67;

FRIDAY HARBOR  MOSUNNY   66  57  72 SW8       30.03F
6HR MIN TEMP:  52; 6HR MAX TEMP:  67;

EASTSOUND      MOSUNNY   68  55  64 S14       30.01F
PORT ANGELES   MOSUNNY   66  56  70 VRB6      30.04F
6HR MIN TEMP:  51; 6HR MAX TEMP:  66;

EDIZ HOOK      FAIR      58  53  83 NW7       30.04S
6HR MIN TEMP:  49; 6HR MAX TEMP:  60;

PORT TOWNSEND  CLOUDY    68  57  68 W6        30.03F
NAS WHIDBEY    PTSUNNY   63  52  67 VRB5      30.07F
6HR MIN TEMP:  57; 6HR MAX TEMP:  65;

ARLINGTON      MOSUNNY   70  56  61 CALM      30.03F
6HR MIN TEMP:  54; 6HR MAX TEMP:  71;

BURLINGTON     SUNNY     70  57  64 SW6       30.02F
$$

WAZ020-022-039-040-504-511-512-231900-
SOUTHWEST INTERIOR

CITY           SKY/WX    TMP DP  RH WIND       PRES   REMARKS
SHELTON        CLOUDY    64  57  78 SW5       30.03F
6HR MIN TEMP:  58; 6HR MAX TEMP:  65;

OLYMPIA        PTSUNNY   65  57  75 MISG      30.05F
6HR MIN TEMP:  55; 6HR MAX TEMP:  68;

CHEHALIS       FAIR      70  59  68 VRB5G13   30.05F
KELSO          SUNNY     69  58  67 VRB5      30.04F
6HR MIN TEMP:  59; 6HR MAX TEMP:  70; 6HR PCP: TRACE;

VANCOUVER      MOSUNNY   67  60  78 VRB3      30.03F
6HR MIN TEMP:  61; 6HR MAX TEMP:  67;

SCAPPOOSE, OR  SUNNY     73  57  57 N8        30.02F
6HR MIN TEMP:  58; 6HR MAX TEMP:  73;

PORTLAND, OR   PTSUNNY   66  58  75 CALM      30.04F
6HR MIN TEMP:  61; 6HR MAX TEMP:  66;

$$

WAZ021-516-517-231900-
WASHINGTON COAST

CITY           SKY/WX    TMP DP  RH WIND       PRES   REMARKS
FORKS          CLOUDY    66  57  72 CALM      30.05S
6HR MIN TEMP:  54; 6HR MAX TEMP:  67;

HOQUIAM        CLOUDY    61  60  97 S5        30.07S
6HR MIN TEMP:  57; 6HR MAX TEMP:  61;

ASTORIA, OR    CLOUDY    65  57  75 N3        30.05F
6HR MIN TEMP:  59; 6HR MAX TEMP:  65;

$$

WAZ019-023-024-040-567>569-231900-
CASCADE MOUNTAINS AND COLUMBIA GORGE

CITY           SKY/WX    TMP DP  RH WIND       PRES   REMARKS
STAMPEDE PASS  SUNNY     66  52  60 VRB5      30.11S
6HR MIN TEMP:  53; 6HR MAX TEMP:  66;

TROUTDALE, OR  CLOUDY    66  59  78 CALM      30.03F
6HR MIN TEMP:  62; 6HR MAX TEMP:  66;

HOOD RIVER, OR PTCLDY    79  55  44 NW9       29.96F
THE DALLES, OR MOSUNNY   81  57  43 NW12      29.93F
6HR MIN TEMP:  68; 6HR MAX TEMP:  82;

$$

WAZ026-027-041>044-520-521-231900-
EAST SLOPES

CITY           SKY/WX    TMP DP  RH WIND       PRES   REMARKS
OMAK           SUNNY     85  45  24 N7        29.91F
6HR MIN TEMP:  59; 6HR MAX TEMP:  85;

WENATCHEE      SUNNY     81  51  35 W6        29.92F
6HR MIN TEMP:  67; 6HR MAX TEMP:  83;

ELLENSBURG     SUNNY     85  51  31 NW9       29.96S
6HR MIN TEMP:  64; 6HR MAX TEMP:  85;

YAKIMA         SUNNY     84  54  35 CALM      29.94F
6HR MIN TEMP:  61; 6HR MAX TEMP:  85;

SUNNYSIDE ARPT   N/A     74  56  52 E3        29.95S
6HR MIN TEMP:  51; 6HR MAX TEMP:  75;

YAKIMA TC      FAIR      81  49  32 NW6       29.93F
6HR MIN TEMP:  63; 6HR MAX TEMP:  82;

$$

WAZ028-034-035-231900-
COLUMBIA BASIN

CITY           SKY/WX    TMP DP  RH WIND       PRES   REMARKS
EPHRATA        SUNNY     82  46  28 S5        29.93F
6HR MIN TEMP:  58; 6HR MAX TEMP:  82;

MOSES LAKE     SUNNY     82  53  36 VRB3      29.94F
6HR MIN TEMP:  59; 6HR MAX TEMP:  82;

PASCO          MOSUNNY   82  56  40 CALM      29.93F
6HR MIN TEMP:  60; 6HR MAX TEMP:  82;

RICHLAND ARPT  PTCLDY    83  55  37 S5        29.93S
6HR MIN TEMP:  67; 6HR MAX TEMP:  83;

HERMISTON, OR  PTSUNNY   80  56  43 W9        29.94F
6HR MIN TEMP:  70; 6HR MAX TEMP:  80; 6HR PCP: TRACE;

$$

WAZ036>038-231900-
NORTHEAST WASHINGTON

CITY           SKY/WX    TMP DP  RH WIND       PRES   REMARKS
SPOKANE GEIGER MOSUNNY   76  52  43 SW8       30.01F
6HR MIN TEMP:  60; 6HR MAX TEMP:  76;

SPOKANE FELTS  SUNNY     79  52  38 S10       30.00F
6HR MIN TEMP:  60; 6HR MAX TEMP:  79;

FAIRCHILD AFB  SUNNY     76  51  41 S7        30.01F
COEURDALENE,ID SUNNY     77  53  43 S9        30.02F
6HR MIN TEMP:  59; 6HR MAX TEMP:  77;

DEER PARK      SUNNY     77  50  38 S10       30.01F
6HR MIN TEMP:  49; 6HR MAX TEMP:  77;

$$

WAZ029>033-231900-
SOUTHEAST WASHINGTON

CITY           SKY/WX    TMP DP  RH WIND       PRES   REMARKS
PULLMAN        MOSUNNY   79  45  29 CALM      30.04F
6HR MIN TEMP:  53; 6HR MAX TEMP:  79;

LEWISTON, ID   PTSUNNY   75  49  39 NE5       29.98F
6HR MIN TEMP:  62; 6HR MAX TEMP:  76;

WALLA WALLA    PTSUNNY   81  54  39 SW13      29.98S
6HR MIN TEMP:  71; 6HR MAX TEMP:  82;

PENDLETON, OR  CLOUDY    77  53  43 NW7       29.99F
6HR MIN TEMP:  63; 6HR MAX TEMP:  77;

$$



USA.gov is the U.S. government's official web portal to all federal, state and local government web resources and services.